Location: Proctor
(47.8934°N, 114.3048°W)
Time: 11:30:46
(UTC+00:00)

AO-91 - Pass Details

Date: 02 July 2022
Orbit: 450 x 797 km, 97.7° (Epoch: 09 August)

Event Time Altitude Azimuth Distance (km) Brightness Sun altitude
Rises 06:01:50 0° 20° (NNE) 2,525 ? -15.6°
Reaches altitude 10° 06:04:02 10° 29° (NNE) 1,617 ? -15.8°
Maximum altitude 06:07:13 36° 98° (E) 741 ? -16.0°
Enters shadow 06:07:51 32° 124° (SE) 791 ? -16.0°
